Regional Weather Roundup
Issued by NWS

Home | Current Version | Previous Version | Graphics & Text | Print | Product List | Glossary Off
Versions: 1 2 3 4 5 6 7 8 9 10 11 12 13 14 15 16 17 18 19 20 21 22 23 24 25 26 27 28 29 30 31 32 33 34 35 36 37 38 39 40 41 42 43 44 45 46 47 48 49 50

561
ASUS43 KDMX 212106
RWRIA

WEATHER ROUNDUP FOR IOWA
NATIONAL WEATHER SERVICE DES MOINES IA
300 PM CST SAT JAN 21 2017

NOTE: "FAIR" INDICATES FEW OR NO CLOUDS BELOW 12,000 FEET WITH NO
SIGNIFICANT WEATHER AND/OR OBSTRUCTIONS TO VISIBILITY.

* - THESE STATIONS ARE NOT NWS STATIONS...THUS NOT UNDER NWS
QUALITY CONTROL.  THEY ALSO DO NOT REPORT WEATHER SUCH
AS PRECIPITATION OR FOG.

IAZ001>003-012>014-020>022-031>034-043>046-212200-
   NORTHWEST IOWA

CITY           SKY/WX    TMP DP  RH WIND       PRES   REMARKS
CARROLL *      CLOUDY    43  43 100 W12       29.43R
CHEROKEE *     CLOUDY    38  37  99 W8        29.42R WCI  32
DENISON *      CLOUDY    43  39  87 W9        29.41R
LE MARS *      CLOUDY    36  32  87 W8        29.44R WCI  29
ORANGE CITY *  CLOUDY    32  32 100 W10       29.42R WCI  24
SHELDON *      CLOUDY    32  32 100 W13       29.40R WCI  22
SIOUX CITY     CLOUDY    45  38  76 N8        29.43R
SPENCER        CLOUDY    37  36  96 W14       29.40R FOG     WCI  28
STORM LAKE *   CLOUDY    39  37  93 W9        29.41R FOG     WCI  33
$$

IAZ055>058-069>071-079>083-090>094-212200-
   SOUTHWEST IOWA

CITY           SKY/WX    TMP DP  RH WIND       PRES   REMARKS
ATLANTIC *     CLOUDY    43  41  93 SW9       29.45R
AUDUBON *      PTSUNNY   43  41  93 SW10      29.45R FOG
CLARINDA *     SUNNY     50  43  76 SW6       29.47S
COUNCIL BLFS * SUNNY     50  41  71 W15       29.44R
CRESTON *      PTSUNNY   45  41  87 SW10      29.47R
HARLAN  *      CLOUDY    46  45  93 SW12      29.47R
LAMONI         PTSUNNY   46  41  82 SW10      29.46S
RED OAK *      MOSUNNY   48  43  81 SW7       29.45S
SHENANDOAH *   MOSUNNY   50  43  76 W8        29.46R
$$

IAZ047>049-059>061-072>074-084-212200-
   CENTRAL IOWA

CITY           SKY/WX    TMP DP  RH WIND       PRES   REMARKS
AMES           CLOUDY    45  44  97 SW7       29.44R
ANKENY *       CLOUDY    46  41  81 SW10      29.46R
BOONE *        CLOUDY    45  45 100 SW10      29.42S
CHARITON *     CLOUDY    43  41  93 SW9       29.46S
DES MOINES     CLOUDY    46  40  79 SW15      29.46R
GRINNELL*      CLOUDY    43  42  98 SW10      29.45S FOG
KNOXVILLE *    CLOUDY    45  41  87 SW9       29.45R
MARSHALLTOWN   CLOUDY    46  44  93 SW10      29.44R
NEWTON *       CLOUDY    45  43  93 SW8       29.44S
PELLA *        CLOUDY    46  41  84 SW10      29.47S
PERRY *        CLOUDY    45  41  88 SW10      29.45R
$$

IAZ004>006-015-016-023>025-035-036-212200-
   NORTH CENTRAL IOWA

CITY           SKY/WX    TMP DP  RH WIND       PRES   REMARKS
ALGONA *       CLOUDY    41  41 100 SW8       29.40R FOG
CLARION *      CLOUDY    41  41 100 SW12      29.42R
ESTHERVILLE    FOG       37  37 100 SW8       29.38R VSB 1/4 WCI  31
FORT DODGE *   CLOUDY    41  37  87 SW8       29.43R
MASON CITY     FOG       37  37 100 S6        29.42R VSB 1/4 WCI  32
FOREST CITY *  FOG       37  37 100 S5        29.41R VSB 1/2 WCI  34
WEBSTER CITY * CLOUDY    41 N/A N/A SW9       29.41R
IOWA FALLS *   CLOUDY    42  42  98 SW10      29.44R
$$

IAZ007>011-017>019-026>030-037>042-050>054-066-212200-
   NORTHEAST IOWA

CITY           SKY/WX    TMP DP  RH WIND       PRES   REMARKS
CEDAR RAPIDS   CLOUDY    44  43  96 S8        29.45R FOG
CHARLES CITY * FOG       39  39 100 SW7       29.42R VSB<1/4 WCI  34
CLINTON *      CLOUDY    44  43  96 W14       29.48R
DECORAH *      FOG       39  39 100 S6        29.41R VSB<1/4 WCI  35
DUBUQUE        CLOUDY    43  43 100 SW7       29.45R FOG
MONTICELLO *   CLOUDY    43  43 100 SW8       29.46R FOG
OELWEIN *      FOG       41  41 100 S8        29.44R VSB<1/4
WATERLOO       CLOUDY    45  42  89 SW10      29.44R
$$

IAZ064-065-067-068-078-212200-
   EAST CENTRAL IOWA

CITY           SKY/WX    TMP DP  RH WIND       PRES   REMARKS
DAVENPORT      CLOUDY    45  43  93 W10       29.48R FOG
IOWA CITY      CLOUDY    46  43  89 SW8       29.48S
MUSCATINE *    CLOUDY    45  43  93 SW9       29.50R
QUAD CITIES    MOSUNNY   50  43  77 SW10      29.47R
$$

IAZ062-063-075>077-085>089-095>099-212200-
   SOUTHEAST IOWA

CITY           SKY/WX    TMP DP  RH WIND       PRES   REMARKS
BURLINGTON     MOSUNNY   53  46  77 SW13      29.48R
FAIRFIELD *    CLOUDY    45  43  93 SW10G16   29.48R
FORT MADISON * PTSUNNY   52  52 100 SW9G17    29.50R
KEOKUK *       PTSUNNY   54 N/A N/A W8        29.48S
OSKALOOSA *    CLOUDY    43  42  99 SW10      29.48R FOG
OTTUMWA        CLOUDY    44  41  89 SW13      29.48R FOG
WASHINGTON *   CLOUDY    45  45 100 SW14      29.50R
$$

ABBREVIATIONS USED IN REMARKS
   TC - TEMPERATURES IN CELSIUS
  WCI - WIND CHILL INDEX
   HX - HEAT INDEX
  VSB - VISIBILITY
$$





USA.gov is the U.S. government's official web portal to all federal, state and local government web resources and services.